Location: Boca do Mato
(22.9085°S, 43.2930°W)
Time: 11:23:06
(UTC+00:00)

Cosmos 2266 Rocket - Pass Details

Date: 01 November 2020
Orbit: 935 x 1007 km, 82.9° (Epoch: 28 November)

Event Time Altitude Azimuth Distance (km) Brightness Sun altitude
Rises 06:23:48 0° 155° (SSE) 3,652 7.8 -23.0°
Reaches altitude 10° 06:28:24 10° 124° (SE) 2,680 7.4 -22.1°
Maximum altitude 06:30:27 12° 104° (ESE) 2,545 7.2 -21.6°
Drops below altitude 10° 06:32:30 10° 84° (E) 2,660 7.1 -21.2°
Sets 06:36:58 0° 53° (NE) 3,585 7.3 -20.3°
